    Orbital elements:
        C/2004 DZ61 (Catalina-LINEAR)
    Epoch 2004 June 4.0 TT = JDT 2453160.5
    T 2004 May 26.85761 TT                                  MPC
    q   2.0133524            (2000.0)            P               Q
    z  +0.0219032      Peri.   44.46118     -0.74269070     +0.65962822
     +/-0.0000012      Node   172.79224     -0.42499638     -0.59741507
    e   0.9559012      Incl.   66.81019     +0.51748295     +0.45605464
    Residuals in seconds of arc
    040218 703  0.6+  0.2+    040225 118  0.2-  0.3+    040229 673  0.7+  0.7+
    040218 703  0.9-  0.1+    040225 118  0.2+  0.4-    040229 673  0.9+  1.2+
    040218 703  0.7-  0.1+    040225 143  0.7-  0.0     040229 673  0.8+  1.4+
    040218 703  0.9-  0.2-    040225 143  0.9-  0.6-    040229 673 (1.0+  2.6+)
    040219 704  0.6+  0.7+    040225 143  0.2-  0.1+    040229 673 (1.1+  2.7+)
    040219 704  0.3+  0.7+    040226 012  0.1+  0.8-    040229 926  0.1+  0.1+
    040219 704  0.7-  0.1-    040226 012  0.3+  1.0-    040229 926  0.2+  0.1+
    040219 704  1.2+  0.3+    040226 012  0.2+  0.3+    040229 926  0.1+  0.1-
    040219 704  0.8-  0.8-    040226 012  0.0   0.0     040229 926  0.1+  0.2-
    040220 118  0.5-  0.3-    040226 012  0.7+  0.1+    040229 926  0.1+  0.1-
    040220 118  0.2+  0.4-    040226 012  0.2+  0.5-    040301 012  0.7+  1.1-
    040220 118  0.2-  0.3-    040226 012  0.5+  0.6-    040301 012  1.0-  0.2-
    040220 118  0.3-  0.6-    040226 012 (1.4-  2.1-)   040301 012  0.3-  1.3-
    040220 118  0.1-  0.5-    040226 649  0.1-  0.4-    040301 012  0.2-  1.2-
    040220 A50  0.9+  0.8+    040226 649  0.2-  0.1-    040301 012  0.2+  0.6-
    040220 A50  1.0+  0.3+    040226 649  0.1-  0.1-    040301 012  0.4-  1.2+
    040220 A50  0.3+  0.1+    040226 649  0.5-  0.1-    040301 012  1.4+  0.8-
    040220 A50  0.6+  0.2-    040226 649  0.2-  0.2-    040301 012  0.4-  1.2-
    040220 A50  0.5+  0.2-    040226 448  0.3-  0.5-    040301 704  0.3+  1.0+
    040220 246  1.3+  0.7+    040226 750  0.3-  0.3-    040301 704  0.1+  0.3+
    040220 246  0.1-  0.7+    040226 448  0.2-  0.3-    040301 704  0.3+  1.0+
    040220 246  0.7+  0.4+    040226 H36  0.4+  0.9-    040301 704  0.3-  0.1-
    040220 246  0.3+  0.5+    040226 750  0.0   0.9+    040301 704  0.8+  0.4+
    040221 J95  0.9-  0.2+    040226 448  0.2-  0.3-    040301 704  0.4+  0.1-
    040221 J95  0.1-  0.3+    040226 H36  1.0-  0.5+    040301 704  0.3-  0.6+
    040221 J95  0.2-  0.4+    040226 704  0.4+  0.5-    040301 926  0.2+  0.0
    040221 649  0.2-  0.4-    040226 704  1.2-  0.0     040301 926  0.3+  0.2-
    040221 649  0.2-  0.6-    040226 H36  0.4-  0.2-    040301 704  0.3+  0.2+
    040221 649  0.0   0.1-    040226 750  0.5-  0.5+    040301 926  0.1+  0.2-
    040221 649  0.0   0.4-    040226 704  0.6+  0.1+    040301 704  0.1+  0.2+
    040221 H36  0.3+  0.7-    040226 704  0.4+  0.1+    040311 644  0.1+  0.1-
    040221 H36  0.9+  0.2-    040226 750  0.9-  0.4-    040311 644  0.1-  0.1-
    040221 H36  0.5-  0.4+    040226 704  0.1-  0.2-    040311 644  0.0   0.0
    040221 A50  0.4-  0.4+    040226 704  0.3+  0.0     040314 704  0.2+  0.3+
    040221 A50  1.1-  0.2+    040226 704  0.2+  0.3+    040314 704  0.6+  0.5+
    040221 A50  0.2-  0.2-    040226 704  0.1+  0.1-    040314 704  0.5+  0.8+
    040221 A50  0.2+  0.9+    040226 704  0.3+  0.1+    040314 704  0.1+  0.5+
    040221 A50 (2.1-  0.3-)   040226 926  0.0   0.3-    040314 J87  0.7-  0.4-
    040221 A50 (2.9-  0.8-)   040226 926  0.1+  0.1-    040314 J87  0.2-  1.3-
    040222 493  0.1+  0.3+    040226 926  0.2+  0.3+    040314 J87  0.2-  0.3-
    040222 493  0.4-  0.0     040226 704  0.6+  0.0     040314 J87  0.1-  0.6-
    040222 493  0.5-  0.1+    040226 704  0.6+  0.1+    040314 A41  0.4-  0.2+
    040223 620  0.4-  0.5-    040226 704  0.5+  0.4+    040314 A41  0.8-  0.4+
    040223 620  0.2-  0.2-    040226 704  0.1+  0.3-    040315 A41  0.0   0.4-
    040223 785  1.7-  0.7-    040226 704  0.3+  0.4-    040315 360  0.2-  0.2-
    040223 704  0.4+  0.3-    040226 704  0.2+  0.1-    040315 360  0.2-  0.2-
    040223 785  1.0-  0.7-    040227 951  0.4+  0.5+    040315 360  0.3-  0.2-
    040223 704  0.1+  0.5-    040227 951  0.5-  0.2-    040316 568  0.2-  0.9+
    040223 785 (3.9-  2.3-)   040227 J95  0.5-  0.5-    040316 568 (0.4-  2.4+)
    040223 704  0.3+  0.1+    040227 J95  0.2-  0.5-    040317 568  0.0   0.7+
    040223 704  0.4+  0.6-    040227 J95  0.3+  0.0     040317 568  0.2+  0.4-
    040223 704  0.2+  0.1-    040227 649  0.5-  0.3-    040318 703  0.2-  0.2-
    040223 704  0.2+  0.5-    040227 649  0.1+  0.4-    040318 703  0.1-  0.3-
    040223 704  1.1+  0.6+    040227 649  0.5-  0.3+    040318 703  0.6-  0.5-
    040224 620  0.3-  0.4-    040227 854  0.9+  0.4-    040318 703  0.5-  0.1+
    040224 620  0.2-  0.5-    040227 854  1.0+  0.3+    040318 J87  0.2-  0.0
    040224 620  0.1-  0.1-    040227 854  0.8+  0.2+    040318 J87  0.0   0.2-
    040224 587  0.3-  0.8-    040227 704  0.4+  0.4-    040318 J87  0.4-  0.2+
    040224 587  0.0   0.2+    040227 704  0.3-  0.4-    040320 J87  0.0   0.3-
    040224 587  1.0-  0.9+    040227 704  0.1+  0.0     040320 J87  0.1+  0.0
    040225 113  0.1+  0.5+    040227 704  0.0   0.2+    040320 J87  0.6-  0.8-
    040225 113  0.2+  0.7+    040227 704  0.6-  1.4+    040321 941  0.1-  0.1-
    040225 113  0.1-  0.1+    040227 H06  0.7-  1.2-    040321 941  0.0   0.1-
    040225 704  0.2+  0.1+    040227 H06  0.3-  1.3-    040321 941  0.1-  0.1-
    040225 704  0.6+  0.6+    040227 H06  0.1+  0.3-    040321 941  0.0   0.0
    040225 704  0.2+  0.4+    040227 926  0.4+  0.1-    040321 941  0.1-  0.2-
    040225 704  0.0   0.7+    040227 926  0.4+  0.1+    040329 704  0.3+  0.3+
    040225 704  0.5+  0.0     040227 926  0.3+  0.1+    040329 704  0.2+  0.2+
    040225 704  0.9-  0.4+    040228 850  0.4-  0.9-    040329 704  0.2+  0.1+
    040225 704  1.4+  1.3+    040228 850  0.8-  0.4-    040329 704  0.3+  0.4+
    040225 704  0.0   0.0     040228 850  0.7-  0.1+    040329 704  0.0   0.2+
    040225 704  0.1+  0.5+    040228 850  0.4+  0.1+    040329 H41  0.7-  1.3-
    040225 704  0.3-  0.0     040228 H36  0.5-  1.0+    040329 H41  1.6-  0.7-
    040225 704  0.1-  0.1+    040228 H36  0.0   1.5-    040329 H41  0.8-  0.5+
    040225 704  0.2+  0.1+    040228 670  0.0   0.9+    040329 H41  0.2+  0.3-
    040225 704  0.6-  0.1+    040228 H36  0.8-  1.4+    040329 104  1.2-  0.8+
    040225 704  0.6+  0.3+    040228 670  0.1-  0.4-    040329 104  0.4+  1.5+
    040225 704  0.1+  0.2+    040229 113  0.3+  0.7+    040329 104  0.1+  1.6+
    040225 H06  0.3-  0.3-    040229 113  0.2+  0.1+    040330 084  0.5+  0.2-
    040225 H06  0.0   0.2-    040229 113  1.0+  0.4+    040402 084  0.1+  0.7-
    040225 673  0.3+  2.0+    040229 176  0.4-  0.3-    040407 644  0.1+  0.2+
    040225 H06  0.2+  0.7-    040229 176  0.4-  0.3-    040407 644  0.1+  0.2+
    040225 673  0.4+  0.7+    040229 176  0.2-  0.3-    040407 644  0.3-  0.2+
    040225 673  0.4+  1.4+    040229 176  0.1-  0.4-    040412 704  0.7+  0.0
    040225 673  0.4+  0.2+    040229 J95  0.2-  0.3-    040412 704  0.8+  0.1+
    040225 926  0.1+  0.4-    040229 J95  0.4-  0.5-    040412 704  0.6+  0.5-
    040225 926  0.1-  0.2+    040229 J95  0.2-  0.4-    040412 704  0.9+  0.1-
    040225 926  0.1-  0.5+    040229 673  0.6+  0.4+    040412 704  0.5+  0.2-
    
    Ephemeris:
        C/2004 DZ61 (Catalina-LINEAR)
    Date    TT    R. A. (2000) Decl.     Delta      r     Elong.  Phase   m1    m2
    2004 04 05    12 11.72   +34 16.9    1.250    2.104   138.2    18.5        18.6
    2004 04 15    12 03.60   +40 32.2    1.323    2.073   125.5    23.2        18.8
    2004 04 25    11 57.44   +45 15.3    1.419    2.048   114.2    26.6        19.0
    2004 05 05    11 54.46   +48 36.7    1.529    2.030   104.4    28.8        19.2
    2004 05 15    11 55.30   +50 53.1    1.643    2.018    96.1    29.9        19.4
    2004 05 25    12 00.19   +52 19.4    1.756    2.013    89.1    30.2        19.5
    2004 06 04    12 08.98   +53 07.8    1.863    2.016    83.3    30.0        19.7
    2004 06 14    12 21.29   +53 26.6    1.963    2.025    78.6    29.5        19.8
    2004 06 24    12 36.73   +53 20.9    2.053    2.041    74.9    28.7        19.9
    2004 07 04    12 54.84   +52 54.5    2.134    2.063    72.1    28.0        20.0
    2004 07 14    13 15.15   +52 09.2    2.206    2.092    70.2    27.2        20.0
    2004 07 24    13 37.29   +51 06.1    2.269    2.127    68.9    26.5        20.1
    2004 08 03    14 00.86   +49 46.5    2.327    2.167    68.3    25.8        20.2
    2004 08 13    14 25.46   +48 11.2    2.380    2.213    68.1    25.1        20.3
    2004 08 23    14 50.80   +46 21.3    2.432    2.263    68.3    24.5        20.3
    2004 09 02    15 16.55   +44 19.0    2.486    2.317    68.7    23.9        20.4
    2004 09 12    15 42.43   +42 06.5    2.543    2.376    69.0    23.3        20.5
    2004 09 22    16 08.21   +39 46.9    2.607    2.438    69.2    22.6        20.6
    2004 10 02    16 33.66   +37 24.1    2.679    2.503    69.1    21.9        20.7
    2004 10 12    16 58.63   +35 01.8    2.762    2.570    68.5    21.2        20.8
    2004 10 22    17 22.98   +32 44.2    2.855    2.640    67.5    20.4        20.9
    2004 11 01    17 46.60   +30 34.9    2.960    2.712    66.0    19.5        21.0
    2004 11 11    18 09.42   +28 36.8    3.075    2.786    64.0    18.6        21.1
    2004 11 21    18 31.38   +26 52.2    3.199    2.861    61.5    17.7        21.2
    
         The "original" and "future" barycentric values of 1/a are +0.022739
    and +0.022128 (+/- 0.000001) AU^-1, respectively.
    
    Brian G. Marsden             (C) Copyright 2004 MPC           M.P.E.C. 2004-G34
    

    Read MPEC 2004-G33 Read MPEC 2004-G35


    MPEC number:

    Enter an MPEC number in one of the following forms:

